Location: Flensburg
(54.6357°N, 9.5142°E)
Time: 08:20:22
(UTC+01:00)

ISS - Pass Details

Date: 06 January 2018
Orbit: 402 x 406 km, 51.6° (Epoch: 16 January)

Event Time Altitude Azimuth Distance (km) Brightness Sun altitude
Exits shadow 05:15:36 17° 103° (ESE) 1,111 -0.9 -28.5°
Drops below altitude 10° 05:16:33 10° 95° (E) 1,468 -0.1 -28.4°
Sets 05:18:43 0° 88° (E) 2,331 1.3 -28.1°
